This demonstration page uses our WeatherBlox Daily Observations layout. Learn more.

Left ArrowRight Arrow

Hourly Observations for August 30, 2016

Temp ( °F °C ) Dew Point ( °F °C ) Humidity (%) Winds ( mph kmh ) Pressure ( in mb ) Visibility ( mi km ) Precip ( " mm )
12:13 am 00:13 Cloudy with Light Rain 71 21.7 68 20 90 90 SE 9 15 30.21 1023 10 16 0.00 0.03
12:54 am 00:54 Partly Cloudy with Light Rain 71 21.7 68 20 90 90 ESE 3 6 30.18 1022 10 16 0.00 0.03
1:54 am 01:54 Clear 70 21.1 68 20 93 93 ESE 3 6 30.14 1021 10 16 0.00 0.03
2:54 am 02:54 Mostly Clear 69 20.6 68 20 96 96 Calm 30.13 1020 10 16 0.00 0.00
3:54 am 03:54 Mostly Clear 69 20.6 68 20 96 96 W 3 6 30.12 1020 10 16 0.00 0.00
4:54 am 04:54 Mostly Cloudy 69 20.6 68 20 96 96 Calm 30.15 1021 10 16 0.00 0.00
5:54 am 05:54 Cloudy with Light Rain 70 21.1 68 20 93 93 NE 5 7 30.17 1022 7 11 0.01 0.25
6:50 am 06:50 Cloudy with Light Rain 70 21 68 20 94 94 ENE 7 11 30.18 1022 6 10 0.02 0.51
6:54 am 06:54 Cloudy with Light Rain 69 20.6 68 20 96 96 ENE 6 9 30.18 1022 6 10 0.02 0.51
7:12 am 07:12 Cloudy with Light Rain 70 21 68 20 94 94 E 5 7 30.18 1022 5 8 0.00 0.00
7:42 am 07:42 Cloudy with Light Rain 70 21 68 20 94 94 E 5 7 30.18 1022 6 10 0.00 0.00
7:54 am 07:54 Cloudy with Light Rain 70 21.1 68 20 93 93 E 3 6 30.19 1022 5 8 0.03 0.76
8:50 am 08:50 Cloudy with Light Rain 72 22 68 20 88 88 Calm 30.18 1022 7 11 0.00 0.00
8:54 am 08:54 Cloudy with Light Rain 71 21.7 69 20.6 94 94 Calm 30.19 1022 7 11 0.01 0.25
9:54 am 09:54 Cloudy 72 22.2 69 20.6 91 91 Calm 30.19 1022 7 11 0.00 0.03
10:29 am 10:29 Cloudy 73 22.8 69 20.6 87 87 Calm 30.18 1022 9 14 0.00 0.00
10:54 am 10:54 Cloudy 72 22.2 69 20.6 91 91 NNE 8 13 30.20 1023 10 16 0.00 0.00
11:54 am 11:54 Cloudy 74 23.3 69 20.6 85 85 NE 7 11 30.21 1023 10 16 0.00 0.00
12:54 pm 12:54 Cloudy 77 25 68 20 74 74 NE 7 11 30.19 1022 10 16 0.00 0.00
1:01 pm 13:01 Cloudy 78 25.6 68 20 71 71 NE 7 11 30.15 1021 10 16 0.00 0.00
1:16 pm 13:16 Mostly Cloudy 77 25 66 19 69 69 ENE 8 13 30.18 1022 10 16 0.00 0.00
1:54 pm 13:54 Mostly Cloudy 77 25 68 20 74 74 SSE 6 9 30.16 1021 10 16 0.00 0.00
2:54 pm 14:54 Partly Cloudy 80 26.7 69 20.6 69 69 VRB 3 6 30.13 1020 10 16 0.00 0.00
3:17 pm 15:17 Mostly Cloudy 81 27.2 69 20.6 67 67 Calm 30.09 1019 10 16 0.00 0.00
3:54 pm 15:54 Cloudy 80 26.7 69 20.6 69 69 N 8 13 30.12 1020 10 16 0.00 0.00
4:54 pm 16:54 Mostly Cloudy 79 26.1 70 21.1 74 74 NNE 10 17 30.13 1020 10 16 0.00 0.00
5:54 pm 17:54 Cloudy 77 25 68 20 74 74 NE 7 11 30.12 1020 10 16 0.00 0.00
6:54 pm 18:54 Cloudy 75 23.9 69 20.6 82 82 NNE 6 9 30.12 1020 10 16 0.00 0.00
7:54 pm 19:54 Cloudy 74 23.3 69 20.6 85 85 NNE 5 7 30.12 1020 10 16 0.00 0.00
8:54 pm 20:54 Mostly Cloudy 74 23.3 70 21.1 88 88 NNE 3 6 30.15 1021 10 16 0.00 0.00
9:54 pm 21:54 Mostly Cloudy with Light Rain 73 22.8 70 21.1 90 90 N 5 7 30.16 1021 10 16 0.00 0.03
10:54 pm 22:54 Mostly Cloudy 72 22.2 70 21.1 94 94 N 5 7 30.16 1021 10 16 0.00 0.03
11:54 pm 23:54 Mostly Clear 71 21.7 69 20.6 94 94 Calm 30.15 1021 7 11 0.00 0.00

Powered by AerisWeather